HST
1 20580U 90037B   24108.87054358  .00011457  00000-0  55801-3 0  9999
2 20580  28.4696  28.9793 0002655  93.6300 266.4596 15.16772606667861
ISS (ZARYA)
1 25544U 98067A   24109.41781315  .00027290  00000-0  47792-3 0  9998
2 25544  51.6383 251.7688 0005046  73.5951  24.7412 15.50379259449272
CXO
1 25867U 99040B   24109.68742308  .00000930  00000-0  00000+0 0  9995
2 25867  39.8987 159.5880 8946259 292.2469 359.9679  0.37811468 25493